Date String (YYYY-MM-DD hh:mm:ss) UTC,Instrument flags,absolute air pressure of the measurement (hPa),sample flow rate (lpm),inlet stack bypass flow (lpm),air temperature of the measurement (°C),ambient temperature measured by the external sensor (°C),aerosol sample conditioner tube jacket temperature (°C),OPC LED temperature (°C),internal box temperature (°C),relative humidity of the measurement (%),span deviation,mass concentration of particles derived from Lorenz-Mie calculation of OPC scattering (μg/m³),mass concentration of particles derived from Lorenz-Mie calculation of OPC scattering (μg/m³),mass concentration of particles derived from Lorenz-Mie calculation of OPC scattering (μg/m³)
DateTimeUTC,F1_M11,P_M11,Q1_M11,Q2_M11,T1_M11,T2_M11,T3_M11,T4_M11,T5_M11,U1_M11,ZSPAN_M11,X0_M11,X2_M11,X1_M11
2024-05-04 21:00:00,SystemResetWarning,0827.9,5.01,000.00,024.1,023.5,000.0,032.2,025.9,018.6,0000.0,0014.82,0005.13,0004.35
2024-05-04 21:01:00,SystemResetWarning,0827.9,5.01,000.00,024.1,023.6,000.0,032.3,025.9,018.8,0000.0,0015.26,0005.20,0004.40
2024-05-04 21:02:00,SystemResetWarning,0827.9,5.00,000.00,024.1,023.6,000.0,032.3,025.9,018.6,0000.0,0015.05,0005.22,0004.45
2024-05-04 21:03:00,SystemResetWarning,0827.9,5.00,000.00,024.1,023.6,000.0,032.3,025.9,018.6,0000.0,0014.84,0005.27,0004.49
2024-05-04 21:04:00,SystemResetWarning,0827.8,5.00,000.00,024.1,023.6,000.0,032.3,026.0,018.4,0000.0,0014.46,0005.33,0004.53
2024-05-04 21:05:00,SystemResetWarning,0827.8,5.00,000.00,024.2,023.7,000.0,032.3,026.0,018.6,0000.0,0012.85,0005.35,0004.58
2024-05-04 21:06:00,SystemResetWarning,0827.8,4.99,000.00,024.2,023.7,000.0,032.4,026.0,019.0,0000.0,0012.97,0005.42,0004.59
2024-05-04 21:07:00,SystemResetWarning,0827.8,5.00,000.00,024.2,023.7,000.0,032.4,026.0,018.8,0000.0,0012.71,0005.44,0004.59
2024-05-04 21:08:00,SystemResetWarning,0827.8,5.01,000.00,024.2,023.7,000.0,032.4,026.1,018.7,0000.0,0011.68,0005.38,0004.56
2024-05-04 21:09:00,SystemResetWarning,0827.8,5.01,000.00,024.3,023.8,000.0,032.4,026.0,018.6,0000.0,0012.27,0005.34,0004.54
2024-05-04 21:10:00,SystemResetWarning,0827.8,5.01,000.00,024.3,023.8,000.0,032.4,026.1,018.8,0000.0,0012.12,0005.37,0004.55
2024-05-04 21:11:00,SystemResetWarning,0827.8,4.99,000.00,024.3,023.8,000.0,032.4,026.1,019.0,0000.0,0011.98,0005.35,0004.53
2024-05-04 21:12:00,SystemResetWarning,0827.7,5.00,000.00,024.3,023.8,000.0,032.5,026.1,019.2,0000.0,0012.26,0005.35,0004.52
2024-05-04 21:13:00,SystemResetWarning,0827.7,5.00,000.00,024.3,023.8,000.0,032.5,026.1,018.9,0000.0,0011.91,0005.33,0004.49
2024-05-04 21:14:00,SystemResetWarning,0827.7,5.00,000.00,024.4,023.9,000.0,032.5,026.2,018.6,0000.0,0012.46,0005.33,0004.48
2024-05-04 21:15:00,SystemResetWarning,0827.7,5.00,000.00,024.4,023.9,000.0,032.5,026.2,018.7,0000.0,0013.20,0005.30,0004.46
2024-05-04 21:16:00,SystemResetWarning,0827.7,5.00,000.00,024.4,023.9,000.0,032.6,026.2,018.5,0000.0,0014.16,0005.31,0004.43
2024-05-04 21:17:00,SystemResetWarning,0827.7,5.00,000.00,024.4,023.9,000.0,032.6,026.2,018.6,0000.0,0014.66,0005.28,0004.40
2024-05-04 21:18:00,SystemResetWarning,0827.6,5.02,000.00,024.4,024.0,000.0,032.6,026.3,018.6,0000.0,0014.97,0005.28,0004.41
2024-05-04 21:19:00,SystemResetWarning,0827.6,5.01,000.00,024.5,024.0,000.0,032.6,026.3,018.6,0000.0,0015.49,0005.34,0004.44
2024-05-04 21:20:00,SystemResetWarning,0827.6,4.99,000.00,024.5,024.0,000.0,032.7,026.3,019.1,0000.0,0015.10,0005.42,0004.47
2024-05-04 21:21:00,SystemResetWarning,0827.5,5.00,000.00,024.5,024.0,000.0,032.7,026.3,018.8,0000.0,0014.20,0005.43,0004.46
2024-05-04 21:22:00,SystemResetWarning,0827.6,4.99,000.00,024.5,024.0,000.0,032.7,026.3,018.6,0000.0,0014.50,0005.43,0004.46
2024-05-04 21:23:00,SystemResetWarning,0827.5,4.99,000.00,024.5,024.0,000.0,032.7,026.4,018.5,0000.0,0015.31,0005.45,0004.50
2024-05-04 21:24:00,SystemResetWarning,0827.5,5.00,000.00,024.5,024.1,000.0,032.7,026.4,018.6,0000.0,0015.50,0005.49,0004.54
2024-05-04 21:25:00,SystemResetWarning,0827.5,5.00,000.00,024.6,024.1,000.0,032.8,026.4,018.6,0000.0,0015.28,0005.53,0004.54
2024-05-04 21:26:00,SystemResetWarning,0827.6,5.01,000.00,024.6,024.1,000.0,032.8,026.4,018.7,0000.0,0015.50,0005.51,0004.53
2024-05-04 21:27:00,SystemResetWarning,0827.5,5.01,000.00,024.6,024.1,000.0,032.8,026.5,018.4,0000.0,0015.75,0005.51,0004.53
2024-05-04 21:28:00,SystemResetWarning,0827.5,5.00,000.00,024.6,024.2,000.0,032.8,026.5,018.5,0000.0,0015.02,0005.52,0004.56
2024-05-04 21:29:00,SystemResetWarning,0827.5,4.99,000.00,024.7,024.2,000.0,032.8,026.5,019.1,0000.0,0014.61,0005.52,0004.56
2024-05-04 21:30:00,SystemResetWarning,0827.8,4.99,000.00,024.7,024.2,000.0,032.8,026.5,019.5,0000.0,0014.26,0005.49,0004.53
2024-05-04 21:31:00,SystemResetWarning,0827.7,4.99,000.00,024.7,024.2,000.0,032.9,026.6,018.9,0000.0,0014.54,0005.45,0004.51
2024-05-04 21:32:00,SystemResetWarning,0827.7,5.00,000.00,024.7,024.2,000.0,032.9,026.6,018.8,0000.0,0014.76,0005.44,0004.55
2024-05-04 21:33:00,SystemResetWarning,0827.6,5.01,000.00,024.7,024.3,000.0,032.9,026.6,018.4,0000.0,0015.37,0005.48,0004.59
2024-05-04 21:34:00,SystemResetWarning,0827.4,5.01,000.00,024.8,024.3,000.0,033.0,026.6,018.5,0000.0,0014.48,0005.51,0004.61
2024-05-04 21:35:00,SystemResetWarning,0827.4,4.99,000.00,024.8,024.3,000.0,033.0,026.6,018.6,0000.0,0014.06,0005.48,0004.63
2024-05-04 21:36:00,SystemResetWarning,0827.4,4.99,000.00,024.8,024.3,000.0,033.0,026.6,018.8,0000.0,0013.69,0005.47,0004.68
2024-05-04 21:37:00,SystemResetWarning,0827.4,4.99,000.00,024.8,024.3,000.0,033.0,026.6,019.1,0000.0,0012.98,0005.50,0004.71
2024-05-04 21:38:00,SystemResetWarning,0827.4,4.99,000.00,024.8,024.3,000.0,033.0,026.6,019.1,0000.0,0011.51,0005.51,0004.74
2024-05-04 21:39:00,SystemResetWarning,0827.4,5.00,000.00,024.8,024.3,000.0,033.1,026.7,018.9,0000.0,0011.88,0005.54,0004.74
2024-05-04 21:40:00,SystemResetWarning,0827.4,5.00,000.00,024.8,024.3,000.0,033.1,026.7,019.2,0000.0,0012.05,0005.56,0004.74
2024-05-04 21:41:00,SystemResetWarning,0827.4,5.01,000.00,024.9,024.4,000.0,033.1,026.7,019.1,0000.0,0012.20,0005.63,0004.75
2024-05-04 21:42:00,SystemResetWarning,0827.4,5.00,000.00,024.9,024.4,000.0,033.1,026.7,018.7,0000.0,0011.91,0005.63,0004.76
2024-05-04 21:43:00,SystemResetWarning,0827.4,5.00,000.00,024.9,024.4,000.0,033.1,026.8,018.4,0000.0,0012.09,0005.66,0004.75
2024-05-04 21:44:00,SystemResetWarning,0827.3,5.00,000.00,024.9,024.4,000.0,033.2,026.8,018.5,0000.0,0011.14,0005.69,0004.78
2024-05-04 21:45:00,SystemResetWarning,0827.4,5.00,000.00,025.0,024.4,000.0,033.2,026.8,018.4,0000.0,0011.11,0005.71,0004.79
2024-05-04 21:46:00,SystemResetWarning,0827.3,5.01,000.00,025.0,024.5,000.0,033.2,026.8,018.7,0000.0,0011.30,0005.82,0004.81
2024-05-04 21:47:00,SystemResetWarning,0827.3,5.01,000.00,025.0,024.5,000.0,033.2,026.8,018.5,0000.0,0011.67,0005.91,0004.83
2024-05-04 21:48:00,SystemResetWarning,0827.3,5.00,000.00,025.0,024.5,000.0,033.2,026.8,018.5,0000.0,0011.66,0005.96,0004.87
2024-05-04 21:49:00,SystemResetWarning,0827.3,5.00,000.00,025.0,024.5,000.0,033.3,026.9,018.6,0000.0,0011.87,0006.03,0004.92
2024-05-04 21:50:00,SystemResetWarning,0827.3,5.00,000.00,025.1,024.5,000.0,033.3,026.9,018.7,0000.0,0011.89,0006.09,0004.96
2024-05-04 21:51:00,SystemResetWarning,0827.3,5.00,000.00,025.1,024.6,000.0,033.3,026.9,018.2,0000.0,0011.75,0006.14,0005.01
2024-05-04 21:52:00,SystemResetWarning,0827.2,5.00,000.00,025.1,024.6,000.0,033.3,026.9,018.2,0000.0,0011.72,0006.17,0005.08
2024-05-04 21:53:00,SystemResetWarning,0827.2,5.00,000.00,025.1,024.6,000.0,033.3,026.9,018.3,0000.0,0011.81,0006.22,0005.13
2024-05-04 21:54:00,SystemResetWarning,0827.2,5.00,000.00,025.1,024.7,000.0,033.3,027.0,018.7,0000.0,0011.69,0006.25,0005.15
2024-05-04 21:55:00,SystemResetWarning,0827.2,5.00,000.00,025.2,024.7,000.0,033.4,027.0,018.7,0000.0,0012.49,0006.21,0005.13
2024-05-04 21:56:00,SystemResetWarning,0827.1,5.00,000.00,025.2,024.7,000.0,033.4,027.0,018.7,0000.0,0013.74,0006.17,0005.10
2024-05-04 21:57:00,SystemResetWarning,0827.2,5.00,000.00,025.2,024.7,000.0,033.4,027.1,018.5,0000.0,0013.68,0006.12,0005.06
2024-05-04 21:58:00,SystemResetWarning,0827.2,5.00,000.00,025.3,024.8,000.0,033.4,027.1,018.3,0000.0,0013.64,0006.07,0005.03
2024-05-04 21:59:00,SystemResetWarning,0827.1,5.00,000.00,025.3,024.8,000.0,033.5,027.1,018.6,0000.0,0013.57,0006.03,0004.99
